CZ-6A DEB, 60757

Orbit data source: Space-Track

CZ-6A DEB, 60757 is space debris in LEO originally from a launch on Tue, 06 Aug 2024 UTC launched from the Taiyaun Space Center, China (TSC). Debris objects in space refer to the collection of defunct objects orbiting the Earth. Examples of debris include non-operational satellites, rocket bodies, and fragments generated from explosions, collisions, or faulty payload assembly.

Loading next visibility...
Identifier
60757, 2024-140EG
Orbit
LEO
Country
Flag of CNCN / PRC
Related business
Manufacturer
SAST
Mission
Spacecraft
Bus & Motor
Unknown
Mass
Unknown
Launch date (UTC)
2024-08-06 (2 years ago)
Launch vehicle
Unknown
Launch site
Taiyaun Space Center, China (TSC)
Object type
Payload
Rocket body
Debris
Shape & HBR
Unknown shape, 0.2 m
Radar Cross Section
Medium (>0.1 m² and <1 m²)

Expand to show TLE details & history
Last TLE update: 16 hours ago

TLE from 16 hours ago
0 CZ-6A DEB
1 60757U 24140EG  26171.29690992  .00000248  00000-0  11712-3 0  9998
2 60757  89.0989 282.5935 0061554 196.9576 162.9556 14.15841074 96417
Epoch: 2026-06-20T07:07Z
TLE epoch observation values (Epoch: 2026-06-20T07:07:33.017Z)
Latitude
Longitude
-92.80763°
Altitude
885.008 km
Speed
7.388 km/s
True Right ascension
18h 50m 22s
True Declination
0° 00' 00"
Sunlit
Object was in full shadow at epoch
Visualization orbit readout
Latitude
Unknown
Longitude
Unknown
Altitude
Unknown
Speed
Unknown
Apparent Right ascension
Unknown
Apparent Declination
Unknown
Sunlit
N/A
Visualization observer readout
Local Sidereal Time
10:19:45
Azimuth
Unknown
Elevation
Unknown
Doppler factor
Unknown
Orbital elements
Apogee altitude
880.817 km
Perigee altitude
792 km
Semi-major axis
7,214.546 km
Eccentricity
0.00616
Inclination
89.0989°
RAAN
282.5935°
Arg. of periapsis
196.9576°
True anomaly
163.16084°
Mean anomaly
162.9556°
Eccentric anomaly
163.05837°
Mean motion
3.54185 °/min
Orbital period
101.64 mins
BSTAR
0.00011712
Loading maneuver chart data...
Computing Atmospheric mass density...
Loading historical data...
Loading historical data...
Loading historical data...
Loading historical data...
Loading historical data...
Loading historical data...
Loading historical data...

Documentation

Showing up to 5 results
|